Dallas/Ft Worth, TX

9:56 PM CST on February 25, 2018 (GMT -0600)
Dallas-Fort Worth International

Weather History for KDFW - June, 2013

Change the Weather History Date:

Tuesday, June 18, 2013

  Actual Average Record
Temperature  
Mean Temperature 78 °F 82 °F  
Max Temperature 87 °F 92 °F 104 °F (1918)
Min Temperature 69 °F 72 °F 56 °F (1912)
Degree Days  
Heating Degree Days 0 0  
Month to date heating degree days 0 0  
Since 1 June heating degree days 0 0  
Since 1 July heating degree days 2045 2284  
Cooling Degree Days 13 17  
Month to date cooling degree days 281 275  
Year to date cooling degree days 670 697  
Since 1 June cooling degree days 281 275  
Growing Degree Days 28 (Base 50)    
Moisture  
Dew Point 68 °F    
Average Humidity 70    
Maximum Humidity 90    
Minimum Humidity 50    
Precipitation  
Precipitation 0.07 in 0.13 in 1.84 in (1909)
Month to date precipitation 2.14 2.44  
Year to date precipitation 15.30 18.69  
Sea Level Pressure  
Sea Level Pressure 29.93 in    
Wind  
Wind Speed 7 mph (NE)    
Max Wind Speed 21 mph    
Max Gust Speed 27 mph    
Visibility 10 miles    
Events Rain , Thunderstorm    
T = Trace of Precipitation, MM = Missing Value Source: NWS Daily Summary

Daily Weather History Graph

Daily Weather History Graph

Search for Another Location

Airport or City:

Trip Planner

Search our weather history database for the weather conditions in past years. The results will help you decide how hot, cold, wet, or windy it might be!

Date:

Astronomy

Jun. 18, 2013 Rise Set
Actual Time 6:19 AM CDT 8:39 PM CDT
Civil Twilight 5:51 AM CDT 9:07 PM CDT
Nautical Twilight 5:15 AM CDT 9:42 PM CDT
Astronomical Twilight 4:37 AM CDT 10:21 PM CDT
Moon 3:36 PM CDT (6/18) 2:15 AM CDT (6/18)
Length of Visible Light 15h 16m
Length of Day
14h 19m
Waxing Gibbous, 71% of the Moon is Illuminated
Jun 18
Waxing Gibbous
Jun 23
Full
Jun 29
Last Quarter
Jul 8
New
Jul 15
First Quarter

Hourly Weather History & Observations

Time (CDT) Temp. Heat Index Dew Point Humidity Pressure Visibility Wind Dir Wind Speed Gust Speed Precip Events Conditions
12:53 AM 80.1 °F 83.8 °F 72.0 °F 76% 29.90 in 10.0 mi NE 6.9 mph - N/A   Overcast
1:19 AM 80.1 °F 83.6 °F 71.1 °F 74% 29.92 in 10.0 mi NNE 9.2 mph - N/A Thunderstorm Thunderstorm
1:53 AM 78.1 °F - 71.1 °F 79% 29.89 in 10.0 mi NE 5.8 mph - 0.00 in Rain , Thunderstorm Light Thunderstorms and Rain
2:40 AM 77.0 °F - 71.1 °F 82% 29.93 in 10.0 mi East 5.8 mph - 0.00 in   Overcast
2:53 AM 77.0 °F - 72.0 °F 84% 29.90 in 10.0 mi East 8.1 mph - 0.00 in   Overcast
3:53 AM 77.0 °F - 68.0 °F 74% 29.91 in 10.0 mi ENE 10.4 mph - N/A   Mostly Cloudy
4:53 AM 75.9 °F - 66.9 °F 74% 29.92 in 10.0 mi Calm Calm - 0.00 in Rain , Thunderstorm Light Thunderstorms and Rain
5:25 AM 73.0 °F - 69.1 °F 87% 29.98 in 9.0 mi NNW 18.4 mph - 0.01 in Rain , Thunderstorm Light Thunderstorms and Rain
5:53 AM 70.0 °F - 66.9 °F 90% 29.94 in 9.0 mi North 9.2 mph - 0.06 in Rain , Thunderstorm Light Thunderstorms and Rain
6:12 AM 69.1 °F - 66.0 °F 90% 29.93 in 10.0 mi NNE 12.7 mph - 0.00 in Rain Light Rain
6:53 AM 69.1 °F - 66.9 °F 93% 29.88 in 10.0 mi East 9.2 mph - 0.01 in Rain Light Rain
7:53 AM 72.0 °F - 66.9 °F 84% 29.91 in 10.0 mi NE 8.1 mph - 0.00 in   Overcast
8:53 AM 73.9 °F - 66.9 °F 79% 29.94 in 10.0 mi NE 6.9 mph - N/A   Overcast
9:44 AM 73.9 °F - 68.0 °F 82% 30.02 in 10.0 mi NW 8.1 mph - N/A   Overcast
9:53 AM 75.0 °F - 68.0 °F 79% 29.99 in 10.0 mi NNW 8.1 mph - N/A   Overcast
10:53 AM 75.0 °F - 66.9 °F 76% 29.98 in 10.0 mi North 5.8 mph - N/A   Overcast
11:53 AM 75.0 °F - 68.0 °F 79% 30.00 in 10.0 mi NNW 6.9 mph - N/A   Mostly Cloudy
12:53 PM 75.9 °F - 69.1 °F 79% 29.97 in 10.0 mi North 9.2 mph - N/A   Mostly Cloudy
1:53 PM 79.0 °F - 69.1 °F 72% 29.96 in 10.0 mi NNE 9.2 mph - N/A   Mostly Cloudy
2:53 PM 82.0 °F 85.5 °F 69.1 °F 65% 29.95 in 10.0 mi NE 5.8 mph - N/A   Mostly Cloudy
3:53 PM 84.0 °F 86.3 °F 66.0 °F 55% 29.93 in 10.0 mi NE 4.6 mph - N/A   Scattered Clouds
4:53 PM 84.9 °F 87.6 °F 66.9 °F 55% 29.92 in 10.0 mi NE 6.9 mph - N/A   Scattered Clouds
5:53 PM 87.1 °F 89.2 °F 66.0 °F 49% 29.91 in 10.0 mi NNE 4.6 mph - N/A   Scattered Clouds
6:53 PM 82.9 °F 85.0 °F 66.0 °F 56% 29.90 in 10.0 mi East 10.4 mph - N/A   Mostly Cloudy
7:53 PM 81.0 °F 83.3 °F 66.9 °F 62% 29.90 in 10.0 mi East 8.1 mph - N/A   Partly Cloudy
8:53 PM 77.0 °F - 66.9 °F 71% 29.91 in 10.0 mi SE 6.9 mph - N/A   Partly Cloudy
9:53 PM 75.9 °F - 68.0 °F 76% 29.92 in 10.0 mi ESE 5.8 mph - N/A   Partly Cloudy
10:53 PM 75.0 °F - 68.0 °F 79% 29.94 in 10.0 mi ESE 5.8 mph - N/A   Clear
11:53 PM 75.0 °F - 69.1 °F 82% 29.95 in 10.0 mi East 4.6 mph - N/A   Clear